TimeEST,TemperatureF,Dew PointF,Humidity,Sea Level PressureIn,VisibilityMPH,Wind Direction,Wind SpeedMPH,Gust SpeedMPH,PrecipitationIn,Events,Conditions,WindDirDegrees,DateUTC
12:53 AM,62.1,44.1,52,30.15,10.0,NW,15.0,24.2,N/A,,Mostly Cloudy,310,2013-03-04 05:53:00
1:53 AM,61.0,42.1,50,30.14,10.0,NW,12.7,19.6,N/A,,Clear,320,2013-03-04 06:53:00
2:53 AM,57.0,48.0,72,30.13,10.0,North,9.2,-,N/A,,Clear,360,2013-03-04 07:53:00
3:53 AM,55.9,46.9,72,30.13,10.0,NNE,9.2,-,N/A,,Clear,20,2013-03-04 08:53:00
4:53 AM,54.0,45.0,72,30.15,10.0,North,10.4,17.3,N/A,,Clear,360,2013-03-04 09:53:00
5:53 AM,53.1,44.1,71,30.17,10.0,North,11.5,18.4,N/A,,Clear,10,2013-03-04 10:53:00
6:53 AM,53.1,42.1,66,30.19,10.0,North,10.4,18.4,N/A,,Clear,10,2013-03-04 11:53:00
7:53 AM,54.0,42.1,64,30.21,10.0,NE,11.5,-,N/A,,Clear,40,2013-03-04 12:53:00
8:53 AM,55.0,41.0,59,30.23,10.0,NE,12.7,-,N/A,,Clear,40,2013-03-04 13:53:00
9:53 AM,57.0,41.0,55,30.24,10.0,NNE,12.7,-,N/A,,Clear,30,2013-03-04 14:53:00
10:53 AM,57.9,41.0,53,30.24,10.0,NNE,9.2,-,N/A,,Clear,30,2013-03-04 15:53:00
11:53 AM,60.1,43.0,53,30.22,10.0,NE,9.2,-,N/A,,Clear,40,2013-03-04 16:53:00
12:53 PM,63.0,44.1,50,30.19,10.0,NNW,5.8,-,N/A,,Clear,340,2013-03-04 17:53:00
1:53 PM,64.0,45.0,50,30.16,10.0,Variable,5.8,-,N/A,,Clear,0,2013-03-04 18:53:00
2:53 PM,62.1,45.0,53,30.15,10.0,Variable,4.6,-,N/A,,Clear,0,2013-03-04 19:53:00
3:53 PM,63.0,45.0,52,30.14,10.0,WNW,6.9,-,N/A,,Clear,300,2013-03-04 20:53:00
4:53 PM,62.1,45.0,53,30.15,10.0,North,3.5,-,N/A,,Clear,350,2013-03-04 21:53:00
5:53 PM,60.1,45.0,57,30.15,10.0,Calm,Calm,-,N/A,,Clear,0,2013-03-04 22:53:00
6:53 PM,57.9,45.0,62,30.17,10.0,Calm,Calm,-,N/A,,Clear,0,2013-03-04 23:53:00
7:53 PM,55.9,45.0,67,30.18,10.0,Calm,Calm,-,N/A,,Clear,0,2013-03-05 00:53:00
8:53 PM,55.0,46.0,72,30.20,10.0,Calm,Calm,-,N/A,,Clear,0,2013-03-05 01:53:00
9:53 PM,54.0,46.0,75,30.20,10.0,Calm,Calm,-,N/A,,Clear,0,2013-03-05 02:53:00
10:53 PM,54.0,46.9,77,30.19,10.0,Calm,Calm,-,N/A,,Clear,0,2013-03-05 03:53:00
11:53 PM,54.0,46.9,77,30.17,10.0,Calm,Calm,-,N/A,,Clear,0,2013-03-05 04:53:00